Location: Cudham
(51.3000°N, 0.0667°E)
Time: 15:48:36
(UTC+00:00)

GP-B - Pass Details

Date: 19 May 2025
Orbit: 619 x 623 km, 89.8° (Epoch: 12 June)

Event Time Altitude Azimuth Distance (km) Brightness Sun altitude
Rises 23:08:41 0° 7° (N) 2,916 7.9 -18.0°
Reaches altitude 10° 23:11:05 10° 17° (NNE) 2,003 6.6 -18.0°
Maximum altitude 23:15:07 34° 83° (E) 1,022 4.1 -18.1°
Enters shadow 23:16:38 27° 123° (ESE) 1,209 4.2 -18.2°
